This is the latest recevied weather packets stored in our database for station/object KD4MBW. If no packets are shown the sender has not sent any weather packets the latest 10 day(s).
| Time | Temp. | Humidity | Pressure | Rain* | Wind** | Luminosity | Snow |
|---|---|---|---|---|---|---|---|
| 1788136059 | 78° F | 98% | 762.9 mmHg | 0 in | - | 0 W/m² | - |
| 1788135758 | 78° F | 99% | 763.1 mmHg | 0 in | - | 0 W/m² | - |
| 1788135455 | 78° F | 99% | 763 mmHg | 0 in | - | 0 W/m² | - |
| 1788135149 | 78° F | 99% | 763 mmHg | 0 in | - | 1 W/m² | - |
| 1788134846 | 79° F | 97% | 762.9 mmHg | 0 in | - | 1 W/m² | - |
| 1788134541 | 79° F | 95% | 763 mmHg | 0 in | - | 3 W/m² | - |
| 1788134240 | 79° F | 96% | 763 mmHg | 0 in | - | 5 W/m² | - |
| 1788133935 | 79° F | 95% | 762.9 mmHg | 0 in | - | 8 W/m² | - |
| 1788133630 | 79° F | 95% | 763 mmHg | 0 in | - | 11 W/m² | - |
| 1788133326 | 79° F | 94% | 763 mmHg | 0.12 in | - | 16 W/m² | - |
| 1788133021 | 80° F | 92% | 762.7 mmHg | 0.12 in | - | 19 W/m² | - |
| 1788132717 | 80° F | 91% | 763.1 mmHg | 0 in | - | 35 W/m² | - |
| 1788132412 | 80° F | 89% | 763 mmHg | 0 in | - | 42 W/m² | - |
| 1788132108 | 81° F | 88% | 762.9 mmHg | 0 in | - | 57 W/m² | - |
| 1788131805 | 81° F | 88% | 763 mmHg | 0 in | - | 76 W/m² | - |
| 1788131504 | 82° F | 89% | 762.7 mmHg | 0 in | - | 85 W/m² | - |
| 1788131199 | 84° F | 86% | 762.7 mmHg | 0 in | - | 104 W/m² | - |
| 1788130899 | 84° F | 83% | 762.4 mmHg | 0 in | - | 127 W/m² | - |
| 1788130594 | 84° F | 82% | 762.5 mmHg | 0 in | - | 148 W/m² | - |
| 1788130289 | 84° F | 84% | 762.6 mmHg | 0 in | - | 175 W/m² | - |
| 1788129987 | 82° F | 87% | 762.4 mmHg | 0 in | - | 206 W/m² | - |
| 1788129678 | 81° F | 87% | 762.8 mmHg | 0 in | - | 224 W/m² | - |
| 1788129375 | 81° F | 89% | 762.5 mmHg | 0 in | - | 235 W/m² | - |
| 1788129074 | 80° F | 87% | 762.4 mmHg | 0 in | - | 182 W/m² | - |
| 1788128769 | 80° F | 89% | 762.6 mmHg | 0 in | - | 193 W/m² | - |
* Rain latest hour (hover to see other rain measurements)
** Current wind speed in m/s (hover to see current wind gust speed)